Terug naar catalogus

COSMOS 1348 DEB

LostHEO
NORAD 32778·DEBRIS·🇷🇺 Russia

Gelanceerd Apr 7, 1982 vanaf Plesetsk Cosmodrome

Loading…

Volgende Passages (komende 24 uur)

TLE

VerouderdSource: Space-Track

Epoch: May 7, 2010, 04:45 UTC

1 32778U 82029M   10127.19836214  .00000161  00000-0  10000-3 0  9995
2 32778  71.1942  30.7043 5163910 156.1950 240.4625  1.96010894 22074

Volg COSMOS 1348 DEB in realtime met AllMySat

Download on the App Store